TimePST,TemperatureF,Dew PointF,Humidity,Sea Level PressureIn,VisibilityMPH,Wind Direction,Wind SpeedMPH,Gust SpeedMPH,PrecipitationIn,Events,Conditions,WindDirDegrees,DateUTC
12:34 AM,48.2,48.2,100,30.22,1.0,Calm,Calm,-,N/A,,Overcast,0,2011-11-25 08:34:00
12:40 AM,46.4,46.4,100,30.22,2.0,Calm,Calm,-,N/A,,Overcast,0,2011-11-25 08:40:00
12:44 AM,46.4,46.4,100,30.22,4.0,Calm,Calm,-,N/A,,Overcast,0,2011-11-25 08:44:00
12:53 AM,46.9,46.9,100,30.23,5.0,Calm,Calm,-,N/A,,Mostly Cloudy,0,2011-11-25 08:53:00
1:28 AM,46.4,46.4,100,30.25,1.8,Calm,Calm,-,N/A,,Partly Cloudy,0,2011-11-25 09:28:00
1:53 AM,45.0,45.0,100,30.26,5.0,Variable,3.5,-,N/A,,Mostly Cloudy,0,2011-11-25 09:53:00
2:19 AM,46.4,46.4,100,30.27,2.5,Calm,Calm,-,N/A,,Overcast,0,2011-11-25 10:19:00
2:25 AM,46.4,46.4,100,30.27,1.5,Calm,Calm,-,N/A,,Overcast,0,2011-11-25 10:25:00
2:34 AM,46.4,46.4,100,30.27,0.5,Calm,Calm,-,N/A,Fog,Fog,0,2011-11-25 10:34:00
2:53 AM,46.9,46.9,100,30.27,0.5,Calm,Calm,-,N/A,Fog,Fog,0,2011-11-25 10:53:00
3:08 AM,46.4,46.4,100,30.27,1.8,Calm,Calm,-,N/A,,Overcast,0,2011-11-25 11:08:00
3:16 AM,46.4,46.4,100,30.27,2.5,Calm,Calm,-,N/A,,Overcast,0,2011-11-25 11:16:00
3:53 AM,46.9,46.0,97,30.27,10.0,SW,4.6,-,N/A,,Overcast,230,2011-11-25 11:53:00
4:53 AM,48.9,46.9,93,30.27,10.0,Calm,Calm,-,N/A,,Overcast,0,2011-11-25 12:53:00
5:53 AM,48.9,48.0,97,30.29,10.0,WSW,3.5,-,N/A,,Overcast,250,2011-11-25 13:53:00
6:53 AM,48.0,46.0,93,30.29,10.0,SW,5.8,-,N/A,,Mostly Cloudy,230,2011-11-25 14:53:00
7:53 AM,48.9,48.0,97,30.30,10.0,Calm,Calm,-,N/A,,Clear,0,2011-11-25 15:53:00
8:53 AM,52.0,48.9,89,30.32,10.0,North,3.5,-,N/A,,Clear,350,2011-11-25 16:53:00
9:41 AM,51.8,48.2,88,30.35,10.0,NNW,8.1,-,N/A,,Partly Cloudy,340,2011-11-25 17:41:00
9:51 AM,51.8,48.2,88,30.35,8.0,North,5.8,-,N/A,,Mostly Cloudy,350,2011-11-25 17:51:00
9:53 AM,50.0,48.9,96,30.35,8.0,North,4.6,-,N/A,,Mostly Cloudy,350,2011-11-25 17:53:00
10:04 AM,50.0,48.2,94,30.36,8.0,Variable,3.5,-,N/A,,Mostly Cloudy,0,2011-11-25 18:04:00
11:06 AM,51.8,48.2,88,30.37,10.0,Calm,Calm,-,N/A,,Overcast,0,2011-11-25 19:06:00
11:53 AM,52.0,48.9,89,30.36,9.0,ENE,4.6,-,N/A,,Overcast,60,2011-11-25 19:53:00
12:36 PM,53.6,50.0,88,30.35,8.0,NE,4.6,-,N/A,,Overcast,50,2011-11-25 20:36:00
12:53 PM,53.1,50.0,89,30.35,7.0,NE,3.5,-,N/A,,Overcast,50,2011-11-25 20:53:00
1:53 PM,55.0,50.0,83,30.34,10.0,North,5.8,-,N/A,,Overcast,350,2011-11-25 21:53:00
2:53 PM,55.0,50.0,83,30.34,10.0,NNW,8.1,-,N/A,,Overcast,330,2011-11-25 22:53:00
3:53 PM,55.0,48.9,80,30.35,10.0,NNW,8.1,-,N/A,,Overcast,340,2011-11-25 23:53:00
4:53 PM,54.0,48.0,80,30.35,10.0,Variable,5.8,-,N/A,,Overcast,0,2011-11-26 00:53:00
5:53 PM,52.0,46.9,83,30.37,10.0,North,6.9,-,N/A,,Partly Cloudy,350,2011-11-26 01:53:00
6:53 PM,46.9,44.1,90,30.38,10.0,Calm,Calm,-,N/A,,Clear,0,2011-11-26 02:53:00
7:53 PM,44.1,43.0,96,30.38,10.0,Calm,Calm,-,N/A,,Clear,0,2011-11-26 03:53:00
8:53 PM,46.9,46.0,97,30.39,10.0,SW,4.6,-,N/A,,Clear,230,2011-11-26 04:53:00
9:53 PM,44.1,43.0,96,30.38,10.0,SW,3.5,-,N/A,,Clear,230,2011-11-26 05:53:00
10:53 PM,42.1,41.0,96,30.38,10.0,Calm,Calm,-,N/A,,Clear,0,2011-11-26 06:53:00
11:53 PM,41.0,39.9,96,30.38,10.0,Calm,Calm,-,N/A,,Clear,0,2011-11-26 07:53:00